This is the latest recevied weather packets stored in our database for station/object KLRF. If no packets are shown the sender has not sent any weather packets the latest 1 day(s).
| Time | Temp. | Humidity | Pressure | Rain* | Wind** | Luminosity | Snow |
|---|---|---|---|---|---|---|---|
| 1778060015 | 10.56° C | 93% | 1012.2 hPa | - | - | - | - |
| 1778058814 | 10.56° C | 93% | 1012.2 hPa | - | - | - | - |
| 1778057019 | 11.67° C | 87% | 1010.5 hPa | - | - | - | - |
| 1778056414 | 11.67° C | 87% | 1009.8 hPa | - | - | - | - |
| 1778055813 | 11.67° C | 87% | 1009.8 hPa | - | - | - | - |
| 1778054612 | 12.78° C | 87% | 1008.8 hPa | - | - | - | - |
| 1778054011 | 12.78° C | 87% | 1008.8 hPa | - | - | - | - |
| 1778052813 | 12.78° C | 93% | 1008.8 hPa | - | - | - | - |
| 1778051015 | 13.89° C | 93% | 1008.5 hPa | - | - | - | - |
| 1778050410 | 13.89° C | 93% | 1008.5 hPa | - | - | - | - |
| 1778049218 | 15.56° C | 82% | 1007.5 hPa | - | - | - | - |
| 1778048613 | 15.56° C | 82% | 1007.5 hPa | - | - | - | - |
| 1778048012 | 15.56° C | 82% | 1007.5 hPa | - | - | - | - |
| 1778047417 | 17.78° C | 82% | 1005.8 hPa | - | - | - | - |
| 1778045611 | 21.67° C | 88% | 1006.1 hPa | - | - | - | - |
| 1778045013 | 21.67° C | 94% | 1006.1 hPa | - | - | - | - |
| 1778044412 | 21.67° C | 94% | 1006.1 hPa | - | - | - | - |
| 1778043815 | 21.67° C | 88% | 1006.1 hPa | - | - | - | - |
| 1778043212 | 21.67° C | 88% | 1006.1 hPa | - | - | - | - |
| 1778042614 | 21.67° C | 88% | 1006.1 hPa | - | - | - | - |
| 1778041414 | 21.67° C | 88% | 1006.1 hPa | - | - | - | - |
| 1778039611 | 21.67° C | 88% | 1006.1 hPa | - | - | - | - |
| 1778039018 | 21.67° C | 88% | 1006.1 hPa | - | - | - | - |
| 1778038417 | 21.67° C | 88% | 1006.1 hPa | - | - | - | - |
| 1778037816 | 21.67° C | 88% | 1006.1 hPa | - | - | - | - |
* Rain since midnight (hover to see other rain measurements)
** Current wind speed in m/s (hover to see current wind gust speed)